sat.trackr.live / text

‹ back to catalog

STARLINK-34697

NORAD 64791 · 2025-150B

PAYLOAD ACTIVE UNKNOWN

§ Identity

Operator
Country
US
Launch date
2025-07-16
Launch site
AFWTR
Launch vehicle
Mass (kg)
RCS (m²)

Purposes: comms

External: N2YO · Heavens-Above · Gunter

§ Orbital elements

Epoch: 2026-05-25T03:51:16.646976Z

Period
96.11 min
Inclination
70.0004°
Eccentricity
0.0003117
Mean motion
14.98335639 rev/d
Perigee alt
569.9 km
Apogee alt
574.2 km
Semi-major
6,950.2 km
B*
2.8551e-4
RAAN
301.5541°
Arg perigee
264.3967°
Mean anomaly
95.6837°
Rev number
4,797

§ Raw data

STARLINK-346971 64791U 25150B   26145.16060934  .00003316  00000+0  28551-3 0  99932 64791  70.0004 301.5541 0003117 264.3967  95.6837 14.98335639 47974

JSON: /api/v1/satellites/64791 · /tle

For live sub-satellite position, see the globe view (requires WebGL).

§ Visibility from observer

Set your observer location to see the next 7 days of passes ≥ 10°. The values pass through the URL so the page stays shareable.

No JS? Fill the form by hand. The geolocation button needs JavaScript.